[[{"header":{"parameterUnit":"m.s-1","parameterCategory":1,"la1":30.2991,"la2":30.254,"lo1":-89.0895,"lo2":-89.0444,"dy":0.0017,"dx":0.0017,"nx":28,"ny":28,"refTime":"2025-04-07T21:00:00:Z","depth":0,"parameterNumber":2,"parameterNumberName":"U-component_of_WINDS"},"data":[0,0,0,0,0,0,0,0,0,0,0,0,0,0,0,0,0,0,0,0,0,0,0,0,0,0,0,0,0,0,0,0,0,0,0,0,0,0,0,0,0,0,0,0,0,0,0,0,0,0,0,0,0,0,0,0,0,0,0.1039,0.1038,0,0.1005,0.1004,0.1004,0.1013,0.1014,0.1015,0.1015,0.0977,0.0976,0.0974,0,0,0,0,0,0,0,0,0,0,0,0,0,0.1109,0.1107,0.1039,0.1038,0.1038,0.1005,0.1004,0.1004,0.1013,0.1014,0.1015,0.1016,0.0978,0.0976,0.0974,0,0,0,0,0,0,0,0,0,0,0,0,0,0.1077,0.1107,0.1039,0.1039,0.1038,0.1005,0.1004,0.1004,0.1013,0.1014,0.1015,0.1016,0.0979,0.0976,0.0974,0.0938,0,0,0.0966,0.0965,0,0,0,0,0,0,0,0,0.1079,0.1074,0.1039,0.1039,0.1038,0.1014,0.1015,0.0981,0.1013,0.1022,0.1015,0.1017,0.0989,0.0985,0.0977,0.0936,0.0934,0.0966,0.0964,0.0963,0.0963,0,0,0,0,0,0,0,0.1081,0.1076,0.1025,0.1039,0.1038,0.1039,0.1036,0.1009,0.1,0.1022,0.1022,0.1018,0.0989,0.0979,0.0976,0.0934,0.0966,0.0964,0.0962,0.0961,0.086,0.0859,0,0,0,0,0,0,0.1084,0.1077,0.1026,0.1024,0.1061,0.1037,0.1033,0.1021,0.1,0.0998,0.1018,0.1019,0.0983,0.0979,0.0974,0.093,0.0963,0.0961,0.096,0.0861,0.086,0.0859,0,0,0,0,0,0,0.1085,0.1079,0.1028,0.1051,0.1045,0.1035,0.1021,0.102,0.101,0.0997,0.0995,0.101,0.0983,0.0978,0.0947,0.0928,0.096,0.0958,0.0863,0.0861,0.0859,0.084,0,0,0,0,0,0,0.1087,0.108,0.1066,0.1051,0.1043,0.1001,0.102,0.1018,0.1006,0.1008,0.0989,0.0987,0.0984,0.095,0.0944,0.0926,0.0956,0.0864,0.0862,0.086,0.0842,0.0838,0.0834,0,0,0,0,0,0.109,0.1062,0.1066,0.1059,0.1027,0.1,0.0996,0.0993,0.1005,0.0991,0.0983,0.0988,0.0932,0.0947,0.094,0.092,0.0865,0.0863,0.086,0.0844,0.0839,0.0834,0,0,0,0,0,0,0.1074,0.106,0.1064,0.103,0.1016,0.1002,0.0984,0.0988,0.097,0.0972,0.0969,0.0965,0.0932,0.0924,0.0941,0.0884,0.09,0.0896,0.089,0.0885,0.0881,0.0883,0.0954,0,0,0,0,0,0.1067,0.1048,0.1036,0.1007,0.1,0.0993,0.0982,0.0981,0.0966,0.096,0.095,0.0934,0.0913,0.0899,0.0879,0.0842,0.0837,0.0825,0.0821,0.0818,0.0813,0.0792,0.0786,0.085,0.085,0.085,0,0,0.1052,0.1041,0.1029,0.1004,0.0993,0.0972,0.0988,0.0965,0.0949,0.0956,0.0926,0.0918,0.09,0.0866,0.085,0.0857,0.0795,0.0814,0.0812,0.0809,0.0788,0.0782,0.0777,0.0848,0.0848,0.0849,0,0,0.1012,0.1004,0.0978,0.0967,0.0951,0.0947,0.0941,0.0926,0.0921,0.0891,0.0896,0.0876,0.0841,0.0828,0.0816,0.0773,0.0776,0.0767,0.0744,0.0723,0.0718,0.0714,0.0696,0.069,0.0763,0.0763,0.0763,0,0.0994,0.0964,0.0964,0.0941,0.0929,0.0937,0.091,0.0899,0.0877,0.0868,0.0878,0.0833,0.0822,0.0783,0.0773,0.0764,0.0756,0.0767,0.0719,0.0715,0.071,0.0693,0.0687,0.0762,0.0762,0.0762,0.0762,0,0.0942,0.092,0.0902,0.0881,0.0868,0.0843,0.0839,0.0825,0.0826,0.082,0.0789,0.0776,0.0753,0.0745,0.0745,0.0706,0.0711,0.072,0.0736,0.0703,0.0687,0.0681,0.076,0.076,0.0761,0.0761,0,0,0.0889,0.0871,0.0863,0.0854,0.0837,0.082,0.0796,0.0774,0.0761,0.0747,0.0724,0.0695,0.0703,0.069,0.0689,0.0671,0.0635,0.0682,0.0681,0.0672,0.0589,0.0581,0.0574,0.0639,0.0638,0.0637,0.059,0,0.0847,0.0804,0.0804,0.0764,0.0744,0.0751,0.073,0.0716,0.0711,0.0692,0.0686,0.0664,0.0677,0.0669,0.0652,0.0644,0.0618,0.0647,0.0616,0.0615,0.0618,0.0566,0.0557,0.0513,0.0584,0.0583,0.0582,0,0.0791,0.0775,0.0733,0.0719,0.0711,0.0691,0.0671,0.0654,0.0639,0.0636,0.0622,0.0625,0.0598,0.0617,0.058,0.06,0.0587,0.0581,0.058,0.0574,0.0595,0.0557,0.0499,0.0492,0.0573,0.0574,0.0575,0,0.0754,0.0722,0.0693,0.0685,0.0669,0.0654,0.0647,0.0633,0.062,0.0603,0.0594,0.0574,0.0562,0.0546,0.0542,0.0557,0.0504,0.0523,0.05,0.0499,0.0486,0.0486,0.0423,0.0482,0.0483,0.0483,0.0483,0,0.0705,0.0678,0.0676,0.0657,0.0628,0.0629,0.0599,0.0592,0.058,0.056,0.0566,0.0546,0.0544,0.0523,0.0521,0.0489,0.0484,0.048,0.0479,0.0478,0.0478,0.0468,0.0469,0.0481,0.0481,0.0482,0.0482,0,0.0658,0.0655,0.0623,0.0611,0.0607,0.0586,0.0575,0.0556,0.0553,0.0526,0.052,0.0513,0.049,0.0485,0.0457,0.0455,0.0417,0.0421,0.0422,0.0421,0.0397,0.0398,0.0323,0.0312,0.0381,0.038,0.038,0,0.0625,0.0605,0.0591,0.0578,0.057,0.0549,0.0537,0.0537,0.0523,0.0505,0.0488,0.0466,0.0447,0.0409,0.04,0.0379,0.038,0.0355,0.0376,0.0376,0.0376,0.0376,0.0373,0.035,0.0349,0.0348,0.0348,0,0.0567,0.0567,0.0548,0.0529,0.0514,0.0499,0.0485,0.0474,0.0472,0.0456,0.0433,0.0418,0.039,0.0367,0.0345,0.0336,0.0341,0.0342,0.0335,0.0332,0.0332,0.0329,0.0408,0.0343,0.0343,0.0344,0.0344,0.0344,0.0524,0.0506,0.0493,0.0472,0.0462,0.0449,0.0431,0.0425,0.0406,0.0383,0.0385,0.0358,0.0344,0.0316,0.0305,0.0284,0.0292,0.0282,0.0279,0.0276,0.0272,0.0339,0.028,0.028,0.0281,0.0281,0.0281,0,0.0464,0.0456,0.0437,0.0418,0.0401,0.041,0.0394,0.0379,0.0356,0.0343,0.0325,0.0297,0.0275,0.0265,0.0243,0.0227,0.0229,0.0221,0.0221,0.0218,0.0268,0.0275,0.022,0.022,0.022,0.022,0.022,0.022,0.043,0.0399,0.0398,0.0362,0.0355,0.033,0.032,0.0307,0.0297,0.0266,0.0248,0.0242,0.023,0.0207,0.0186,0.0184,0.0174,0.0165,0.0163,0.0209,0.0215,0.0221,0.0227,0.0164,0.0164,0.0115,0.0115,0.0114]},{"header":{"parameterUnit":"m.s-1","parameterCategory":1,"la1":30.2991,"la2":30.254,"lo1":-89.0895,"lo2":-89.0444,"dy":0.0017,"dx":0.0017,"nx":28,"ny":28,"refTime":"2025-04-07T21:00:00:Z","depth":0,"parameterNumber":3,"parameterNumberName":"V-component_of_WINDS"},"data":[0,0,0,0,0,0,0,0,0,0,0,0,0,0,0,0,0,0,0,0,0,0,0,0,0,0,0,0,0,0,0,0,0,0,0,0,0,0,0,0,0,0,0,0,0,0,0,0,0,0,0,0,0,0,0,0,0,0,-4.7054,-4.7055,0,-4.7129,-4.7129,-4.713,-4.7095,-4.7093,-4.7091,-4.7089,-4.7162,-4.7165,-4.7169,0,0,0,0,0,0,0,0,0,0,0,0,0,-4.688,-4.6883,-4.7054,-4.7055,-4.7056,-4.7128,-4.7129,-4.713,-4.7095,-4.7093,-4.7091,-4.7088,-4.7161,-4.7165,-4.7169,0,0,0,0,0,0,0,0,0,0,0,0,0,-4.6955,-4.6884,-4.7054,-4.7047,-4.7048,-4.7128,-4.7129,-4.7131,-4.7096,-4.7093,-4.709,-4.7087,-4.7159,-4.7165,-4.717,-4.7261,0,0,-4.7187,-4.7189,0,0,0,0,0,0,0,0,-4.6951,-4.6961,-4.7047,-4.7048,-4.7048,-4.71,-4.7094,-4.7174,-4.7096,-4.7077,-4.7089,-4.7086,-4.7143,-4.715,-4.717,-4.7264,-4.7267,-4.7187,-4.7191,-4.7193,-4.7195,0,0,0,0,0,0,0,-4.6946,-4.6958,-4.7084,-4.7049,-4.7049,-4.704,-4.7047,-4.7109,-4.7125,-4.7079,-4.7076,-4.7086,-4.7143,-4.7165,-4.7171,-4.7268,-4.7187,-4.7192,-4.7196,-4.7198,-4.7442,-4.7445,0,0,0,0,0,0,-4.6941,-4.6954,-4.7081,-4.7086,-4.6992,-4.7045,-4.7054,-4.7086,-4.7124,-4.7127,-4.7088,-4.7084,-4.7157,-4.7165,-4.7174,-4.7284,-4.7193,-4.7198,-4.7201,-4.7439,-4.7443,-4.7446,0,0,0,0,0,0,-4.6937,-4.6953,-4.7078,-4.7019,-4.7035,-4.7051,-4.7088,-4.7089,-4.7111,-4.7131,-4.7134,-4.7108,-4.7155,-4.7166,-4.724,-4.7286,-4.7201,-4.7206,-4.7435,-4.744,-4.7444,-4.7504,0,0,0,0,0,0,-4.6933,-4.6952,-4.6987,-4.702,-4.7038,-4.7144,-4.7091,-4.7092,-4.7121,-4.7116,-4.715,-4.7153,-4.7153,-4.7232,-4.7245,-4.7292,-4.721,-4.7431,-4.7437,-4.7443,-4.7498,-4.751,-4.7521,0,0,0,0,0,-4.6926,-4.6999,-4.6989,-4.7004,-4.7082,-4.7147,-4.7157,-4.7156,-4.7124,-4.716,-4.7173,-4.7152,-4.7278,-4.724,-4.7255,-4.7304,-4.7428,-4.7436,-4.7443,-4.7493,-4.7508,-4.752,0,0,0,0,0,0,-4.6969,-4.7003,-4.6992,-4.7078,-4.711,-4.7141,-4.7185,-4.7172,-4.7212,-4.7206,-4.7202,-4.721,-4.7287,-4.7302,-4.7259,-4.7394,-4.7348,-4.7359,-4.7382,-4.7396,-4.7407,-4.7402,-4.7215,0,0,0,0,0,-4.6989,-4.7039,-4.7066,-4.7139,-4.7156,-4.7168,-4.7196,-4.7193,-4.7225,-4.7238,-4.7257,-4.7289,-4.7335,-4.7366,-4.741,-4.75,-4.7507,-4.7541,-4.7552,-4.7561,-4.7571,-4.7621,-4.7636,-4.747,-4.747,-4.7469,0,0,-4.7029,-4.7054,-4.7086,-4.7149,-4.7173,-4.7225,-4.718,-4.7236,-4.7275,-4.7246,-4.7319,-4.7333,-4.7368,-4.7451,-4.7488,-4.7466,-4.7618,-4.757,-4.7577,-4.7582,-4.763,-4.7645,-4.7659,-4.7475,-4.7474,-4.7473,0,0,-4.713,-4.7154,-4.7219,-4.7244,-4.7283,-4.729,-4.7306,-4.7339,-4.7349,-4.7421,-4.7402,-4.7447,-4.7527,-4.7553,-4.7577,-4.769,-4.7673,-4.7704,-4.7764,-4.7812,-4.7826,-4.7837,-4.7879,-4.7894,-4.7713,-4.7713,-4.7713,0,-4.7175,-4.7254,-4.7253,-4.7312,-4.7341,-4.7319,-4.7385,-4.7409,-4.7459,-4.7479,-4.7454,-4.7556,-4.7577,-4.7667,-4.7695,-4.7714,-4.7732,-4.7701,-4.7824,-4.7836,-4.7846,-4.7886,-4.7902,-4.7717,-4.7717,-4.7716,-4.7716,0,-4.7309,-4.7364,-4.7411,-4.7463,-4.7496,-4.7558,-4.7566,-4.76,-4.7594,-4.7605,-4.7679,-4.7705,-4.7754,-4.7775,-4.7769,-4.7864,-4.785,-4.7824,-4.7778,-4.7866,-4.7903,-4.7918,-4.7722,-4.7721,-4.772,-4.7719,0,0,-4.7438,-4.749,-4.7507,-4.7531,-4.7572,-4.7614,-4.7675,-4.7725,-4.7755,-4.779,-4.7842,-4.7911,-4.7889,-4.7916,-4.7913,-4.7955,-4.8045,-4.7925,-4.7926,-4.7948,-4.8153,-4.8173,-4.8191,-4.8034,-4.8036,-4.8039,-4.8151,0,-4.7544,-4.7652,-4.7654,-4.7754,-4.7805,-4.7786,-4.7839,-4.787,-4.7881,-4.7926,-4.7938,-4.7988,-4.7953,-4.797,-4.8011,-4.8026,-4.8087,-4.8017,-4.8082,-4.8084,-4.8075,-4.821,-4.8231,-4.8336,-4.8165,-4.8168,-4.8169,0,-4.7681,-4.7723,-4.7829,-4.7864,-4.7886,-4.7934,-4.7981,-4.8024,-4.8058,-4.8064,-4.8095,-4.8086,-4.8148,-4.81,-4.8186,-4.8139,-4.8165,-4.8176,-4.818,-4.8187,-4.8133,-4.8222,-4.8369,-4.8385,-4.8192,-4.819,-4.8189,0,-4.7767,-4.785,-4.7924,-4.7945,-4.7987,-4.8022,-4.8041,-4.8073,-4.8104,-4.8145,-4.8165,-4.8211,-4.8237,-4.8273,-4.8277,-4.8241,-4.8364,-4.8315,-4.837,-4.837,-4.8398,-4.8396,-4.8552,-4.8412,-4.8412,-4.8412,-4.8412,0,-4.7885,-4.7951,-4.7964,-4.801,-4.8083,-4.8084,-4.8156,-4.8172,-4.8201,-4.8249,-4.8234,-4.828,-4.8281,-4.8328,-4.8331,-4.8402,-4.8413,-4.8419,-4.842,-4.8422,-4.8421,-4.844,-4.8433,-4.8416,-4.8415,-4.8414,-4.8414,0,-4.7994,-4.8005,-4.8086,-4.812,-4.813,-4.8183,-4.8212,-4.8256,-4.8266,-4.8328,-4.8342,-4.8358,-4.8413,-4.842,-4.8482,-4.8484,-4.8571,-4.8562,-4.856,-4.8559,-4.8614,-4.861,-4.8789,-4.8813,-4.8656,-4.8657,-4.8659,0,-4.8069,-4.812,-4.8161,-4.8193,-4.8215,-4.8267,-4.8299,-4.8301,-4.8335,-4.8379,-4.8418,-4.8471,-4.8513,-4.8601,-4.8617,-4.8666,-4.8659,-4.8719,-4.8666,-4.8667,-4.8662,-4.866,-4.8665,-4.8729,-4.8731,-4.8732,-4.8733,0,-4.8203,-4.8206,-4.8254,-4.8304,-4.8343,-4.8382,-4.8418,-4.8445,-4.8453,-4.8491,-4.8547,-4.8581,-4.8646,-4.8699,-4.8747,-4.8765,-4.8752,-4.875,-4.8765,-4.8769,-4.8766,-4.877,-4.8589,-4.8746,-4.8745,-4.8744,-4.8743,-4.8743,-4.8298,-4.8343,-4.838,-4.8433,-4.8462,-4.8497,-4.854,-4.8557,-4.8604,-4.8659,-4.8657,-4.8719,-4.8753,-4.8817,-4.8839,-4.8887,-4.8868,-4.889,-4.8895,-4.8901,-4.8908,-4.8757,-4.8896,-4.8895,-4.8895,-4.8895,-4.8894,0,-4.8432,-4.8455,-4.8505,-4.8558,-4.86,-4.8584,-4.8624,-4.8661,-4.8716,-4.875,-4.8793,-4.8858,-4.891,-4.8931,-4.8982,-4.9017,-4.9012,-4.903,-4.9028,-4.9033,-4.8921,-4.8904,-4.9034,-4.9034,-4.9033,-4.9033,-4.9033,-4.9033,-4.8507,-4.8583,-4.8591,-4.8681,-4.8703,-4.8765,-4.879,-4.8822,-4.8849,-4.8923,-4.8967,-4.8981,-4.901,-4.9063,-4.911,-4.9115,-4.9135,-4.9157,-4.9159,-4.9055,-4.9041,-4.9027,-4.9011,-4.9161,-4.9161,-4.9267,-4.9268,-4.9268]}]]